Flag for China Weather past 2 weeks in Guilin, Guangxi, China

Now
77 °F

Passing clouds.


Feels Like: 78 °F
Forecast: 56 / 85 °F
Wind: 13 mph from Northeast

Location: Guilin Airport

Current Time: Oct 22, 2014 at 1:33:08 PM

Latest Report: Oct 22, 2014 at 1:00 PM


Visibility: N/A

Pressure: 30.15 "Hg

Humidity: 42%

Dew point: 52 °F

Location of GuilinLocation

Historic Weather in Guilin — Graph

°F

Guilin temperature yesterday

Maximum temperature yesterday: 75 °F (at 4:00 PM)
Minimum temperature yesterday: 64 °F (at 11:00 PM)
Average temperature yesterday: 71 °F

Past Weeks' High & Low Weather Summary

 TemperatureHumidityPressure
High88 °F (Oct 20, 1:00 PM)100% (Oct 8, 5:00 AM)30.27 "Hg (Oct 8, 5:00 AM)
Low57 °F (Oct 9, 6:00 AM)19% (Oct 8, 4:00 PM)29.86 "Hg (Oct 9, 3:00 PM)
Average71 °F67%30.04 "Hg
* Reported Oct 7 12:00 Noon — Oct 22 12:00 Noon, Guilin, Weather by CustomWeather, © 2014

Note: Actual official high and low records may vary slightly from our data, if they occured in-between our weather recording intervals... More about our weather records

Advertising

Guilin weather history for previous 24 hours

 ConditionsComfort  
Time TempWeatherWind HumidityBarometerVisibility
12:00 PM
Oct 22
75 °FPassing clouds.13 mph44%30.18 "HgN/A
11:00 AM73 °FPassing clouds.13 mph50%30.21 "HgN/A
10:00 AM72 °FPassing clouds.13 mph57%30.24 "HgN/A
9:00 AM66 °FSunny.3 mph78%30.21 "Hg10 mi
8:00 AM61 °FClear.1 mph100%30.21 "Hg4 mi
7:00 AM59 °FLight fog.1 mph100%30.18 "Hg4 mi
6:00 AM59 °FFog.3 mph94%30.15 "Hg2 mi
5:00 AM61 °FFog.3 mph94%30.15 "Hg3 mi
4:00 AM61 °FFog.1 mph94%30.15 "Hg3 mi
3:00 AM61 °FClear.3 mph94%30.15 "Hg4 mi
2:00 AM63 °FClear.6 mph88%30.15 "Hg4 mi
1:00 AM63 °FClear.No wind94%30.15 "Hg4 mi
12:00 AM64 °FClear.1 mph83%30.15 "Hg5 mi
11:00 PM
Oct 21
64 °FClear.1 mph88%30.15 "Hg10 mi
10:00 PM68 °FClear.6 mph78%30.15 "Hg10 mi
9:00 PM68 °FPassing clouds.3 mph78%30.15 "HgN/A
8:00 PM70 °FPassing clouds.3 mph78%30.12 "HgN/A
7:00 PM70 °FMostly cloudy.6 mph78%30.09 "HgN/A
6:00 PM70 °FMostly cloudy.15 mph78%30.09 "HgN/A
5:00 PM73 °FPartly sunny.10 mph78%30.07 "HgN/A
4:00 PM75 °FScattered clouds.6 mph78%30.07 "HgN/A
3:00 PM73 °FPassing clouds.3 mph83%30.07 "HgN/A
2:00 PM72 °FLight rain. Broken clouds.3 mph88%30.07 "HgN/A
1:00 PM72 °FLight rain. Broken clouds.3 mph94%30.09 "HgN/A
Weather by CustomWeather, © 2014

See weather overviewHow to use our weather pages